This is the latest recevied weather packets stored in our database for station/object KG5EO. If no packets are shown the sender has not sent any weather packets the latest 10 day(s).
| Time | Temp. | Humidity | Pressure | Rain* | Wind** | Luminosity | Snow |
|---|---|---|---|---|---|---|---|
| 1777408869 | 27.78° C | 16% | 41.1 hPa | 0 mm | - | - | - |
| 1777408569 | 27.78° C | 19% | 41.1 hPa | 0 mm | - | - | - |
| 1777408269 | 27.78° C | 17% | 41.1 hPa | 0 mm | - | - | - |
| 1777407968 | 27.22° C | 19% | 41.1 hPa | 0 mm | - | - | - |
| 1777407669 | 27.22° C | 16% | 41.1 hPa | 0 mm | - | - | - |
| 1777407368 | 27.78° C | 18% | 41.1 hPa | 0 mm | - | - | - |
| 1777407068 | 27.78° C | 19% | 41.1 hPa | 0 mm | - | - | - |
| 1777406768 | 27.22° C | 19% | 41.1 hPa | 0 mm | - | - | - |
| 1777406468 | 27.22° C | 19% | 41.1 hPa | 0 mm | - | - | - |
| 1777406168 | 27.22° C | 21% | 41.1 hPa | 0 mm | - | - | - |
| 1777405867 | 27.22° C | 20% | 41.1 hPa | 0 mm | - | - | - |
| 1777405568 | 27.22° C | 22% | 41.1 hPa | 0 mm | - | - | - |
| 1777405267 | 26.67° C | 20% | 41.1 hPa | 0 mm | - | - | - |
| 1777404967 | 26.67° C | 22% | 41.1 hPa | 0 mm | - | - | - |
| 1777404667 | 26.67° C | 20% | 41.1 hPa | 0 mm | - | - | - |
| 1777404368 | 27.22° C | 24% | 41.1 hPa | 0 mm | - | - | - |
| 1777404066 | 26.67° C | 19% | 41.1 hPa | 0 mm | - | - | - |
| 1777403768 | 26.67° C | 20% | 41.2 hPa | 0 mm | - | - | - |
| 1777403466 | 26.11° C | 21% | 41.2 hPa | 0 mm | - | - | - |
| 1777403167 | 26.11° C | 25% | 41.2 hPa | 0 mm | - | - | - |
| 1777402867 | 26.11° C | 21% | 41.2 hPa | 0 mm | - | - | - |
| 1777402566 | 26.11° C | 21% | 41.2 hPa | 0 mm | - | - | - |
| 1777402266 | 26.67° C | 22% | 41.2 hPa | 0 mm | - | - | - |
| 1777401968 | 26.11° C | 24% | 41.2 hPa | 0 mm | - | - | - |
| 1777401665 | 25.56° C | 23% | 41.2 hPa | 0 mm | - | - | - |
* Rain latest hour (hover to see other rain measurements)
** Current wind speed in m/s (hover to see current wind gust speed)